Location: Morlupo
(42.1333°N, 12.5000°E)
Time: 16:32:35
(UTC+00:00)

SJ 16-02 - Pass Details

Date: 18 September 2020
Orbit: 606 x 616 km, 75.0° (Epoch: 26 October)

Event Time Altitude Azimuth Distance (km) Brightness Sun altitude
Rises 17:56:40 0° 217° (SW) 2,853 5.2 -8.7°
Reaches altitude 10° 17:59:02 10° 226° (SW) 1,952 4.4 -9.2°
Maximum altitude 18:03:04 37° 294° (WNW) 955 3.1 -9.9°
Drops below altitude 10° 18:07:08 10° 2° (N) 1,964 4.1 -10.6°
Sets 18:09:32 0° 11° (N) 2,872 4.8 -11.1°
